User: anonymous   Login
Location: Unspecified
(0.0000°N, 0.0000°E)
Time: 21:04:30
(UTC+00:00)
Language:

STARLINK-35052 - Orbit

View from above orbital plane
View from above orbital plane
View from above satellite
View from above satellite

Ground track
Ground track

The orbit is defined by the following mean orbital elements,

1 65540U          26145.45852066 +.00000000 +00000-0 +32285-3 0 00000
2 65540  97.4475 215.1177 0002637 132.7675 227.3774 15.05658802    03
Epoch (UTC): 25 May 2026 11:00:16
Eccentricity: 0.0002637
inclination: 97.4475°
perigee height: 548 km
apogee height: 551 km
right ascension of ascending node: 215.1177°
argument of perigee: 132.7675°
revolutions per day: 15.05658802
mean anomaly at epoch: 227.3774°

The dashed part of the orbit path shows where the satellite is in the earth's shadow,  

DLR